Flag for Russia Weather past 2 weeks in Chelyabinsk, Russia

Now
55 °F

Broken clouds.


Feels Like: 52 °F
Forecast: 49 / 62 °F
Wind: 13 mph from Northwest

Location: Chelyabinsk-Balandino

Current Time: Jul 28, 2014 at 8:00:55 PM

Latest Report: Jul 28, 2014 at 7:30 PM


Visibility: N/A

Pressure: 29.80 "Hg

Humidity: 77%

Dew point: 48 °F

Location of ChelyabinskLocation

Historic Weather in Chelyabinsk — Graph

°F

Chelyabinsk temperature yesterday

Maximum temperature yesterday: 55 °F (at 4:00 PM)
Minimum temperature yesterday: 45 °F (at 1:30 AM)
Average temperature yesterday: 50 °F

Past Weeks' High & Low Weather Summary

 TemperatureHumidityPressure
High79 °F (Jul 16, 5:00 PM)100% (Jul 14, 8:00 AM)30.04 "Hg (Jul 14, 8:00 AM)
Low41 °F (Jul 18, 5:30 AM)38% (Jul 15, 5:00 PM)29.12 "Hg (Jul 21, 8:00 AM)
Average55 °F77%29.67 "Hg
* Reported Jul 13 7:00 PM — Jul 28 7:00 PM, Chelyabinsk, Weather by CustomWeather, © 2014

Note: Actual official high and low records may vary slightly from our data, if they occured in-between our weather recording intervals... More about our weather records

Advertising

Chelyabinsk weather history for previous 24 hours

 ConditionsComfort  
Time TempWeatherWind HumidityBarometerVisibility
7:00 PM
Jul 28
57 °FBroken clouds.13 mph72%29.80 "HgN/A
6:30 PM57 °FBroken clouds.15 mph72%29.80 "HgN/A
6:00 PM55 °FBroken clouds.13 mph77%29.80 "HgN/A
5:30 PM54 °FBroken clouds.10 mph82%29.80 "HgN/A
5:00 PM54 °FSprinkles. Broken clouds.13 mph88%29.80 "Hg4 mi
4:30 PM59 °FSprinkles. Broken clouds.15 mph77%29.77 "HgN/A
4:00 PM57 °FBroken clouds.8 mph82%29.77 "HgN/A
3:30 PM55 °FBroken clouds.13 mph82%29.77 "HgN/A
3:00 PM57 °FSprinkles. Broken clouds.17 mph72%29.77 "Hg3 mi
2:30 PM59 °FBroken clouds.15 mph72%29.77 "HgN/A
2:00 PM59 °FBroken clouds.17 mph68%29.77 "HgN/A
1:30 PM57 °FBroken clouds.15 mph77%29.77 "HgN/A
1:00 PM55 °FSprinkles. Mostly cloudy.15 mph82%29.77 "Hg4 mi
12:30 PM57 °FMostly cloudy.10 mph72%29.77 "HgN/A
12:00 PM57 °FBroken clouds.13 mph67%29.77 "HgN/A
11:30 AM57 °FBroken clouds.13 mph72%29.77 "HgN/A
11:00 AM55 °FBroken clouds.13 mph77%29.77 "HgN/A
10:30 AM54 °FMostly cloudy.13 mph82%29.77 "HgN/A
10:00 AM54 °FMostly cloudy.13 mph82%29.77 "HgN/A
9:30 AM55 °FBroken clouds.13 mph77%29.74 "HgN/A
9:00 AM52 °FMostly cloudy.13 mph88%29.74 "HgN/A
8:30 AM52 °FMostly cloudy.10 mph88%29.74 "HgN/A
8:00 AM52 °FMostly cloudy.10 mph88%29.74 "HgN/A
7:30 AM50 °FMostly cloudy.10 mph94%29.74 "HgN/A
7:00 AM50 °FMostly cloudy.8 mph94%29.74 "HgN/A
6:30 AM50 °FSprinkles. Mostly cloudy.8 mph94%29.74 "HgN/A
6:00 AM50 °FSprinkles. Mostly cloudy.8 mph88%29.74 "HgN/A
5:30 AM50 °FSprinkles. Mostly cloudy.10 mph88%29.74 "HgN/A
5:00 AM50 °FMostly cloudy.8 mph88%29.74 "HgN/A
4:30 AM50 °FMostly cloudy.8 mph88%29.74 "HgN/A
4:00 AM50 °FMostly cloudy.8 mph88%29.74 "HgN/A
3:30 AM48 °FMostly cloudy.8 mph94%29.74 "HgN/A
3:00 AM48 °FPartly cloudy.8 mph87%29.74 "HgN/A
2:30 AM50 °FMostly cloudy.8 mph88%29.74 "HgN/A
2:00 AM50 °FPartly cloudy.8 mph88%29.74 "HgN/A
1:30 AM50 °FPartly cloudy.8 mph88%29.74 "HgN/A
1:00 AM48 °FPartly cloudy.8 mph94%29.74 "HgN/A
12:30 AM48 °FPartly cloudy.6 mph94%29.74 "HgN/A
12:00 AM48 °FPartly cloudy.6 mph94%29.74 "HgN/A
11:30 PM
Jul 27
46 °FPartly cloudy.6 mph87%29.74 "HgN/A
11:00 PM48 °FPartly cloudy.3 mph87%29.74 "HgN/A
10:30 PM48 °FPartly cloudy.6 mph87%29.74 "HgN/A
10:00 PM48 °FBroken clouds.6 mph87%29.74 "HgN/A
9:30 PM48 °FBroken clouds.6 mph87%29.74 "HgN/A
9:00 PM52 °FSprinkles. Broken clouds.8 mph82%29.74 "HgN/A
8:30 PM55 °FBroken clouds.6 mph63%29.71 "HgN/A
8:00 PM55 °FBroken clouds.8 mph63%29.71 "HgN/A
Weather by CustomWeather, © 2014

See weather overviewHow to use our weather pages